Location: Le Hiès Ruisseau
(43.3000°N, 0.4500°W)
Time: 12:18:04
(UTC+00:00)

BREEZE-M DEB (TANK) - Pass Details

Date: 28 January 2023
Orbit: 426 x 13838 km, 45.9° (Epoch: 19 March)

Event Time Altitude Azimuth Distance (km) Brightness Sun altitude
Rises 17:56:39 0° 263° (W) 2,379 7.7 -9.1°
Reaches altitude 10° 17:58:17 10° 267° (W) 1,565 6.1 -9.4°
Maximum altitude 18:01:13 69° 351° (N) 622 2.5 -9.9°
Enters shadow 18:06:05 13° 75° (ENE) 2,622 5.1 -10.8°
